Location: UBC Liquid-Mirror Observatory
(49.2876°N, 122.5728°W)
Time: 03:18:25
(UTC-07:00)

Daily predictions for brighter satellites

Satellite Brightness Start Highest point End
(mag) Time Altitude Azimuth Time Altitude Azimuth Time Altitude Azimuth
H-2A R/B 4.1 00:01:38 14° WSW 00:03:37 17° W 00:06:50 10° NW
Cosmos 841 Rocket 3.8 00:05:56 50° E 00:05:56 50° E 00:10:33 10° NNE
Cosmos 1340 3.7 00:07:18 42° NNE 00:07:18 42° NNE 00:09:58 10° NNE
Cosmos 1500 4.0 00:08:03 10° N 00:11:04 50° NNE 00:11:04 50° NNE
CZ-4B R/B 4.0 00:13:28 14° NE 00:13:28 14° NE 00:14:47 10° NNE
Cosmos 1378 Rocket 4.4 00:17:49 41° W 00:18:15 42° WNW 00:22:29 10° N
Cosmos 2237 Rocket 2.8 00:19:20 28° WSW 00:22:07 52° NW 00:27:43 10° NNE
Cosmos 2278 Rocket 3.7 00:18:08 10° NW 00:22:27 23° WSW 00:23:16 22° WSW
Cosmos 2184 Rocket 4.1 00:16:05 10° N 00:22:27 69° ENE 00:23:43 55° SE
Cosmos 2333 Rocket 3.3 00:19:08 16° WSW 00:23:26 41° NW 00:28:55 10° NNE
Cosmos 1709 Rocket 4.4 00:17:50 10° NNW 00:24:03 56° W 00:25:37 45° SW
Cosmos 2327 Rocket 4.4 00:19:29 10° N 00:25:35 68° ENE 00:26:35 58° SE
CZ-2C R/B 2.9 00:20:35 10° NNE 00:25:59 53° E 00:26:06 53° ESE
Cosmos 1544 Rocket 3.8 00:21:38 10° NNW 00:25:38 67° NW 00:25:38 67° NW
USA 238 DEB 3.9 00:20:54 10° NW 00:27:58 70° NE 00:30:53 38° ESE
USA 238 3.9 00:21:00 10° NW 00:28:04 69° NE 00:31:00 38° ESE
Gbstr 26 Del rocket 4.4 00:23:53 25° SW 00:29:03 70° SSE 00:36:58 10° ENE
Meteor 1-12 Rocket 4.2 00:24:37 10° NNW 00:30:32 78° W 00:31:21 66° SSW
Cosmos 371 Rocket 3.3 00:42:08 73° WNW 00:42:11 73° WNW 00:47:06 10° NNE
Cosmos 1932 4.4 00:36:41 10° NW 00:43:16 75° SW 00:44:13 64° S
Cosmos 1607 3.9 00:42:12 10° NW 00:48:32 73° SW 00:49:16 66° S
Cosmos 2219 Rocket 4.2 00:43:57 10° W 00:48:32 25° NW 00:53:11 10° NNE
Cosmos 1461 4.3 00:46:19 10° NNW 00:50:00 32° NE 00:50:34 31° ENE
Meteor 2-4 Rocket 4.4 00:50:17 39° E 00:50:21 39° E 00:55:23 10° NNE
ATLAS CENTAUR R/B 2.1 00:51:33 51° N 00:51:33 51° N 00:54:46 10° NE
Cosmos 2074 Rocket 3.9 00:46:38 10° NNW 00:52:50 74° W 00:53:44 63° SSW
Cosmos 1943 4.4 00:55:13 29° E 00:55:13 29° E 00:59:37 10° NE
Cosmos 1455 Rocket 3.9 00:50:43 10° NNW 00:54:26 43° WNW 00:54:26 43° WNW
Cosmos 1812 4.3 00:59:39 29° WNW 00:59:39 29° WNW 01:02:38 10° N
NOSS 3-2 (C) 4.5 00:52:26 10° NW 00:59:31 55° NE 01:06:30 13° ESE
Spot 2 4.3 00:56:28 10° NNE 01:00:20 70° NNE 01:00:20 70° NNE
Cosmos 2154 Rocket 4.0 00:55:32 10° N 01:01:49 73° ENE 01:02:56 60° SE
CENTAUR R/B 4.4 00:55:34 10° NW 01:02:17 36° NNE 01:09:39 10° E
Cosmos 1125 Rocket 3.8 00:57:08 10° NNW 01:02:08 55° W 01:02:08 55° W
Cosmos 1975 4.3 00:58:57 10° NNW 01:01:37 30° WNW 01:01:37 30° WNW
Cosmos 1763 Rocket 4.2 01:01:48 42° W 01:02:50 48° WNW 01:07:59 10° NNE
Meteor 1-13 Rocket 4.2 01:02:25 70° SE 01:02:57 75° E 01:08:55 10° NNE
NOSS 2-3 (D) 3.9 01:03:50 75° E 01:03:50 75° E 01:09:23 10° NE
Meteor 2-13 Rocket 4.4 00:57:51 10° NNW 01:03:55 69° W 01:04:38 63° SW
ARGOS Delta rocket 3.9 00:59:58 10° NNE 01:03:59 65° NE 01:03:59 65° NE
CZ-2C R/B 3.4 01:08:00 48° W 01:08:00 48° W 01:12:28 10° NNW
Cosmos 372 Rocket 4.1 01:02:40 10° NNW 01:07:38 63° W 01:07:38 63° W
Cosmos 1743 4.0 01:04:09 10° NNW 01:06:41 37° NW 01:06:41 37° NW
Okean 1-7 Rocket 4.5 01:09:03 42° ENE 01:09:03 42° ENE 01:12:33 10° NNE
Meteor 1-19 Rocket 4.2 01:09:40 71° SSE 01:10:13 78° E 01:16:07 10° NNE
Cosmos 1666 3.8 01:06:36 10° N 01:09:17 43° NNW 01:09:17 43° NNW
Cosmos 2058 Rocket 4.5 01:10:00 10° N 01:13:49 29° ENE 01:14:01 29° ENE
Cosmos 44 4.0 01:10:04 10° NNW 01:14:16 41° NE 01:14:49 39° ENE
Landsat 5 4.0 01:15:15 56° NNE 01:15:15 56° NNE 01:18:43 10° N
ALOS 2 3.9 01:19:28 30° WNW 01:19:28 30° WNW 01:22:37 10° NNW
Cosmos 1603 3.5 01:18:24 77° S 01:18:46 83° ESE 01:24:33 10° NNE
Cosmos 2369 Rocket 2.0 01:13:18 10° NNW 01:18:57 88° WSW 01:19:18 79° SSE
USA 267 4.0 01:16:34 10° E 01:22:53 53° NNE 01:29:13 10° WNW
Okean 2 4.4 01:28:32 40° ENE 01:28:32 40° ENE 01:31:43 10° NNE
Cosmos 1943 Rocket 2.4 01:24:10 10° NNW 01:29:50 66° ENE 01:31:04 51° ESE
ATLAS 2AS CENTAUR R/B 3.0 01:27:01 41° SW 01:30:15 82° NW 01:38:27 10° NE
Cosmos 962 Rocket 4.4 01:26:34 10° N 01:33:00 90° NW 01:34:08 63° S
Cosmos 540 Rocket 3.6 01:35:09 61° W 01:35:28 63° WNW 01:40:36 10° NNE
NOSS 3-2 (A) 3.9 01:31:57 10° NW 01:39:20 89° NE 01:43:13 34° SE
Cosmos 405 Rocket 3.8 01:42:47 41° N 01:42:47 41° N 01:45:22 10° N
SL-16 R/B 3.6 01:42:06 21° W 01:44:50 32° NW 01:49:55 10° NNE
CZ-4B R/B 3.6 01:47:04 22° NW 01:47:04 22° NW 01:48:28 10° NNW
Cosmos 2218 Rocket 4.2 01:41:19 10° N 01:47:31 64° ENE 01:49:12 46° SE
Cosmos 2228 3.6 01:43:24 10° N 01:47:43 51° ENE 01:47:43 51° ENE
Cosmos 2366 rocket 4.4 01:42:05 10° N 01:48:20 58° ENE 01:50:19 41° SE
Cosmos 2181 Rocket 4.0 01:48:49 58° SSE 01:50:09 79° E 01:56:38 10° NNE
Meteor 1-23 Rocket 4.0 01:52:39 72° SSW 01:53:14 84° WNW 01:58:51 10° N
Cosmos 1606 Rocket 3.8 01:50:41 10° NNW 01:54:30 62° NW 01:54:30 62° NW
ATLAS 3B R/B 3.5 01:50:14 10° NW 01:55:36 32° WSW 01:55:36 32° WSW
SL-8 Rocket 3.9 01:53:05 10° N 01:59:17 89° E 02:00:34 59° S
Cosmos 292 Rocket 4.2 01:59:27 53° ESE 01:59:27 53° ESE 02:04:08 10° NNE
SL-16 R/B 4.3 01:55:32 10° ESE 02:00:32 27° ENE 02:05:31 10° N
Cosmos 1238 Rocket 4.1 02:03:39 45° W 02:04:19 48° WNW 02:10:11 10° N
CZ-2C R/B 4.1 02:01:21 10° N 02:06:00 29° WNW 02:07:38 25° W
Cosmos 1656 Rocket 4.0 02:02:27 10° NNW 02:07:51 60° ENE 02:10:03 34° ESE
SL-24 R/B 4.1 02:08:28 86° NE 02:08:28 86° NE 02:13:08 10° NNW
H-2A R/B 2.8 02:07:12 10° N 02:10:22 54° NNW 02:10:22 54° NNW
Cosmos 1295 Rocket 4.5 02:05:15 10° NNW 02:11:13 59° W 02:12:06 54° SW
Cosmos 1025 Rocket 3.7 02:14:42 45° WNW 02:14:42 45° WNW 02:18:36 10° N
COSMOS 2455 2.9 02:08:26 10° NNW 02:14:30 77° NE 02:17:26 32° SE
Cosmos 44 Rocket 4.0 02:11:44 10° NW 02:15:04 40° WNW 02:15:04 40° WNW
Cosmos 1726 Rocket 4.1 02:12:14 10° NNW 02:15:59 49° WNW 02:15:59 49° WNW
USA 238 DEB 4.5 02:12:20 10° NW 02:18:17 34° WSW 02:18:17 34° WSW
USA 238 4.5 02:12:25 10° NW 02:18:24 34° WSW 02:18:24 34° WSW
PSLV R/B 3.6 02:19:15 10° NNE 02:23:56 81° ESE 02:24:08 78° SE
Iridium 2 4.0 02:21:30 10° N 02:24:53 65° NNE 02:24:53 65° NNE
Cosmos 1441 Rocket 4.2 02:28:38 38° NW 02:28:38 38° NW 02:31:46 10° N
Cosmos 1809 Rocket 4.3 02:22:10 10° NNW 02:28:19 79° W 02:29:52 53° S
Genesis I 4.1 02:24:38 10° NW 02:27:19 41° NW 02:27:19 41° NW
Cosmos 1812 Rocket 4.2 02:26:03 10° N 02:30:22 52° ENE 02:31:16 44° ESE
ATLAS CENTAUR R/B 3.9 02:27:50 10° WNW 02:30:27 16° NNW 02:32:59 10° NNE
USA 215 3.4 02:24:23 10° ENE 02:30:50 58° SE 02:32:31 46° S
PSLV R/B 3.9 02:33:41 72° WNW 02:33:41 72° WNW 02:37:33 10° NNW
Cosmos 1680 Rocket 3.9 02:32:44 44° SE 02:33:46 51° ESE 02:38:51 10° NNE
Cosmos 724 4.3 02:27:45 10° NW 02:33:49 65° WSW 02:35:02 53° S
Cosmos 1437 Rocket 4.1 02:32:41 10° NNW 02:35:07 30° NW 02:35:07 30° NW
Resurs 1-4 Rocket 4.0 02:34:05 10° NE 02:38:07 22° E 02:41:09 14° SE
Cosmos 1943 3.6 02:37:01 41° WSW 02:38:34 54° NW 02:44:07 10° NNE
Nadezhda 3 Rocket 4.5 02:38:29 32° SSE 02:41:17 55° E 02:47:27 10° NNE
NPP 4.1 02:41:10 10° NNE 02:46:28 53° E 02:48:18 37° SSE
Meteor 1-4 Rocket 2.7 02:45:17 10° N 02:49:07 75° ENE 02:49:07 75° ENE
ADEOS Rocket 4.4 02:45:03 10° NNE 02:50:26 32° E 02:55:00 15° SSE
NOSS 3-2 (C) 4.1 02:43:29 10° NW 02:50:39 52° WSW 02:53:51 34° S
Cosmos 2058 Rocket 4.2 02:47:57 10° NNW 02:51:17 31° WNW 02:51:17 31° WNW
CENTAUR R/B 3.1 02:46:22 10° NW 02:54:06 81° NE 03:02:30 10° SE
Helios 1A Rocket 3.1 02:50:20 10° N 02:54:21 57° WNW 02:54:29 57° W
CZ-2D R/B 3.6 02:51:15 10° NNE 02:55:52 29° E 02:58:58 17° SE
ARIANE 5 R/B 4.1 02:52:35 10° NE 02:57:08 29° E 03:00:14 17° SE
Cosmos 1271 Rocket 3.8 02:54:26 10° N 02:57:59 39° ENE 02:59:23 28° ESE
Cosmos 1626 Rocket 3.4 02:59:56 66° SSW 03:00:29 81° W 03:04:54 10° N
EXPRESS MD2 4.2 02:51:59 10° W 03:01:09 89° S 03:05:19 10° ESE
Cosmos 1371 Rocket 4.0 02:56:34 10° NNW 03:01:59 88° ENE 03:04:48 29° SSE
Cosmos 1805 3.9 02:58:13 10° N 03:02:06 53° ENE 03:03:17 37° SE
Cosmos 2369 Rocket 4.1 02:58:58 10° WNW 03:01:05 15° W 03:01:05 15° W
USA 267 3.1 02:59:09 10° SE 03:05:43 82° SW 03:12:18 10° WNW
Cosmos 923 Rocket 4.1 03:06:29 46° SW 03:08:03 70° WNW 03:13:25 10° NNE
Lacrosse 5 rocket 2.8 03:08:20 27° SE 03:09:00 29° SE 03:13:01 10° ENE
Cosmos 1825 Rocket 4.4 03:09:13 30° SE 03:10:57 45° E 03:15:11 10° NNE
Cosmos 1943 Rocket 3.5 03:08:43 10° NW 03:12:34 23° W 03:12:34 23° W
Aureole 1 Rocket 3.1 03:15:35 49° SW 03:16:44 71° WNW 03:20:42 10° NNE
Cosmos 1842 3.2 03:19:44 53° SSE 03:20:32 75° E 03:24:26 10° NNE
NOSS 3-4 (A) 3.5 03:17:38 34° SW 03:20:36 78° NW 03:27:14 10° NE
NOSS 3-4 (C) 3.5 03:17:45 34° SW 03:20:42 78° NW 03:27:20 10° NE
Cosmos 1821 Rocket 3.9 03:15:16 10° N 03:21:25 89° W 03:25:25 23° S
Cosmos 1766 3.5 03:17:40 10° NNW 03:21:34 50° W 03:21:42 50° WSW
SL-08 R/B 3.4 03:20:40 45° SW 03:21:41 54° W 03:26:25 10° NNW
Cosmos 1602 Rocket 3.9 03:21:35 44° WSW 03:22:26 51° WNW 03:26:47 10° N
ATLAS 2AS CENTAUR R/B 4.3 03:15:08 10° W 03:22:27 37° NNW 03:29:52 10° NE
IRS-1C 4.1 03:23:43 10° NNE 03:29:06 86° ESE 03:31:42 32° SSW
Cosmos 2239 Rocket 4.4 03:24:21 10° NNW 03:30:32 76° W 03:34:24 24° S
RESURS DK-1 2.4 03:34:53 45° SW 03:36:01 68° WNW 03:40:09 10° NNE
NOSS 2-2 (C) 4.3 03:36:59 30° S 03:38:32 43° ESE 03:43:04 10° NE
Abrixas 2.6 03:39:22 59° ESE 03:39:22 59° ESE 03:41:46 10° E
Cosmos 1934 Rocket 4.0 03:33:13 10° N 03:39:32 84° W 03:44:46 16° S
Cosmos 1535 Rocket 4.4 03:33:41 10° NNW 03:39:54 70° W 03:43:59 22° S
COSMOS 2406 3.2 03:37:33 32° SW 03:40:22 80° WNW 03:46:09 10° NNE
USA 161 3.6 03:39:36 10° SE 03:42:06 26° ENE 03:44:31 10° NNE
Cosmos 1605 Rocket 4.1 03:35:55 10° N 03:42:10 75° E 03:48:17 10° SSE
Cosmos 2112 Rocket 4.3 03:40:56 31° SW 03:43:14 55° WNW 03:48:25 10° NNE
Cosmos 1707 4.5 03:40:24 11° SSE 03:43:30 29° E 03:46:54 10° NNE
SL-16 R/B 2.5 03:38:59 18° S 03:43:41 69° WSW 03:49:51 10° NNW
Cosmos 839 Rocket 4.0 03:37:40 10° NW 03:43:55 78° SW 03:51:06 10° SSE
MOZ.5/SAFIR/RUBIN 5/SL-8 4.4 03:40:32 10° SSE 03:45:05 56° ENE 03:49:42 10° N
Cosmos 192 4.4 03:44:21 33° SW 03:46:29 66° WNW 03:51:24 10° NNE
NOSS 5 (C) 4.3 03:50:06 47° SSW 03:50:51 68° SE 03:53:55 10° NE
Cosmos 1470 2.9 03:47:51 10° N 03:51:46 73° E 03:54:57 15° SSE
Cosmos-2242 3.3 03:47:38 10° N 03:52:04 70° E 03:56:25 10° SSE
Cosmos 389 Rocket 2.7 03:49:27 10° N 03:53:06 70° ENE 03:56:00 15° SSE
Cosmos 1624 Rocket 4.4 03:49:14 10° NW 03:54:09 43° WSW 03:56:45 24° SSW
ERS-1 4.4 03:50:58 10° NNE 03:55:57 80° WNW 03:58:56 25° SSW
Cosmos 921 Rocket 3.4 03:54:09 10° NNW 03:58:28 47° WSW 04:00:46 25° SSW
COSMOS 2455 3.9 03:55:16 10° WNW 03:59:49 23° WSW 04:00:31 22° WSW
Cosmos 2098 Rocket 2.1 03:58:06 10° N 04:01:05 74° E 04:02:45 23° SSE
Cosmos 1953 2.7 04:00:09 10° NNW 04:03:57 43° W 04:05:32 29° SW
Gbstr 26 Del rocket 4.5 03:56:45 10° WNW 04:04:53 82° NNE 04:12:00 10° ESE
Cosmos 1758 Rocket 3.5 04:03:20 25° SSW 04:05:47 72° W 04:10:07 10° N
Spot 4 Rocket 4.1 04:00:49 10° N 04:05:57 67° WNW 04:09:16 22° SSW
Cosmos 2056 Rocket 4.1 04:03:03 10° NW 04:07:54 36° WSW 04:10:46 21° SSW
UNKNOWN OBJECT B 3.2 04:04:23 10° NNE 04:08:23 64° ESE 04:11:34 16° S
Cosmos 1544 4.3 04:05:54 10° NW 04:08:55 24° W 04:09:18 24° W
COBE Rocket 3.9 04:08:40 10° N 04:13:46 78° WNW 04:17:30 18° SSW
USA 215 3.6 04:07:29 10° ENE 04:13:57 64° NNW 04:19:51 13° W
USA 32 4.2 04:10:41 21° SSW 04:14:10 58° W 04:19:22 10° N
SL-27 R/B 3.5 04:15:16 24° WSW 04:16:45 34° WNW 04:20:08 10° N
UNK 4.5 04:15:54 22° SW 04:18:01 32° W 04:22:09 10° NNW
Resurs 1-4 Rocket 2.2 04:13:10 10° N 04:18:22 62° WNW 04:22:13 18° SW
Cosmos 1733 3.2 04:14:42 10° NNW 04:18:27 56° W 04:21:16 16° S
CZ-2D R/B 3.5 04:17:04 10° NNE 04:21:10 73° ESE 04:24:44 13° S
Cosmos 1758 4.5 04:18:36 10° NNW 04:22:03 26° W 04:23:30 21° WSW
Cosmos 1953 Rocket 4.1 04:24:56 20° SW 04:27:41 43° WNW 04:32:00 10° N
IRS-1D 4.0 04:24:39 10° N 04:29:40 49° WNW 04:33:40 16° SW
ADEOS 4.0 04:27:07 10° N 04:32:09 49° WNW 04:36:13 15° SW
Cosmos 1697 Rocket 2.8 04:26:39 10° NNW 04:32:19 80° ENE 04:37:55 10° SSE
Cosmos 1271 Rocket 4.3 04:31:12 10° NW 04:33:44 17° W 04:34:34 16° WSW
Intercosmos 25 4.4 04:25:54 10° NNW 04:33:55 74° W 04:38:40 10° S
NOSS 2-2 (E) 3.8 04:30:59 18° WSW 04:34:04 66° NW 04:39:15 10° NE
CZ-2D R/B 2.6 04:31:04 10° N 04:36:07 46° WNW 04:40:18 15° SW
ADEOS Rocket 3.4 04:30:23 10° N 04:36:11 53° WNW 04:41:58 13° SW
ARIANE 5 R/B 3.0 04:31:26 10° N 04:36:27 46° WNW 04:40:36 14° SW
Meteor 2-15 4.4 04:32:50 10° S 04:39:00 83° W 04:45:10 10° N
DNEPR-1 R/B 4.3 04:35:40 10° WNW 04:39:20 29° WSW 04:43:09 10° S
Cosmos 2278 3.9 04:36:25 10° NW 04:41:54 48° WSW 04:47:20 10° S
Cosmos 1452 Rocket 3.9 04:37:51 10° NW 04:42:47 42° WSW 04:47:41 10° S
CENTAUR R/B 3.7 04:37:38 10° NW 04:44:24 32° WSW 04:51:33 10° S
Cosmos 2061 Rocket 4.1 04:40:17 10° N 04:46:35 84° E 04:52:47 10° S
Lacrosse 5 rocket 1.8 04:44:01 14° WSW 04:48:02 71° NNW 04:52:40 10° NE
Meteor 2-15 Rocket 4.5 04:42:18 10° S 04:48:27 83° W 04:54:38 10° N
USA 267 4.0 04:43:51 10° S 04:49:21 28° SW 04:54:53 10° WNW
Cosmos 2369 4.1 04:44:50 10° NW 04:50:13 42° WSW 04:55:34 10° S
EO 1 Del DPAF 4.3 04:48:48 10° SE 04:52:32 50° ENE 04:56:18 10° N
COSMOS 2487 2.6 04:49:26 13° SSW 04:52:35 63° WNW 04:56:09 10° NNE
Cosmos 1727 Rocket 4.2 04:48:27 10° SSW 04:54:30 56° WNW 05:00:36 10° N
Orbus 7S? 3.6 04:52:33 10° WNW 04:55:47 28° SW 04:58:08 10° SSE
Cosmos 2016 Rocket 4.2 04:51:04 10° N 04:57:20 80° E 05:03:40 10° SSE
Cosmos 1420 Rocket 4.3 04:52:21 10° NNW 04:57:28 47° WSW 05:02:31 10° S
Cosmos 2322 Rocket 4.1 04:52:25 10° NNW 04:57:37 35° NE 05:02:49 10° ESE
Cosmos 1656 3.8 04:55:05 10° NW 05:00:17 48° WSW 05:05:28 10° S
MOS 1 Rocket 3.3 04:58:50 10° N 05:03:06 59° WNW 05:07:30 10° SSW
CZ-3A R/B 2.4 05:04:44 10° NW 05:06:26 27° N 05:10:19 10° ENE
Cosmos 1980 Rocket 2.3 05:01:15 10° NNW 05:07:00 89° ENE 05:12:41 10° SSE
Cosmos 1048 Rocket 4.0 05:02:12 10° SSW 05:07:20 84° ESE 05:12:29 10° NNE
Cosmos 1833 Rocket 2.8 05:02:39 10° SSW 05:08:15 81° ESE 05:13:54 10° NNE
CZ-4B R/B 3.4 05:04:09 10° NNE 05:08:28 74° ESE 05:12:55 10° S
Okean O Rocket 1.9 05:04:52 10° NNE 05:09:20 73° ESE 05:13:44 10° S
NOSS 2-2 (D) 4.5 05:06:42 10° WSW 05:10:48 43° NW 05:15:47 10° NE
Cosmos 2082 Rocket 2.3 05:05:59 10° SSW 05:11:43 89° WNW 05:17:28 10° NNE
USA 161 3.3 05:10:08 10° SW 05:11:59 16° W 05:13:48 10° NW
Cosmos 1818 4.2 05:07:11 10° WSW 05:12:27 47° NW 05:17:44 10° NNE
Landsat 4 4.4 05:09:18 10° SSW 05:12:40 32° W 05:16:04 10° NNW
CZ-2C R/B 3.8 05:09:03 10° SSE 05:13:29 83° ENE 05:18:01 10° NNW
Abrixas 2.5 05:11:11 10° W 05:13:55 51° SSW 05:16:40 10° ESE
GEOS 3 Rocket 4.1 05:09:36 10° NE 05:14:44 53° NW 05:19:52 10° WSW
Meteor 2-5 Rocket 4.1 05:09:12 10° SSW 05:14:48 53° WNW 05:20:33 10° N
Cosmos 1110 Rocket 4.2 05:09:57 10° NNW 05:15:20 84° ENE 05:20:38 10° SSE
CZ-4B R/B 3.5 05:11:45 10° NNE 05:17:09 69° ESE 05:22:25 10° S
Cosmos 1459 Rocket 4.1 05:11:33 10° NNW 05:17:32 55° W 05:23:35 10° SSW
Cosmos 1802 Rocket 4.1 05:11:59 10° NNW 05:18:21 64° W 05:24:39 10° S
MTI 3.8 05:15:14 10° SSE 05:18:28 88° WSW 05:21:44 10° NNW
EXPRESS MD2 4.5 05:14:26 10° W 05:18:32 23° SW 05:21:06 10° S
Cosmos 1707 4.0 05:16:12 10° SW 05:19:27 25° WNW 05:22:42 10° NNW
ADEOS II 2.2 05:15:14 10° NNE 05:20:32 86° ESE 05:25:48 10° SSW
